ATLAS CENTAUR 2 DEB

Satellite information

Favourite Embed

Satellite Type and Status

DEBRISIN ORBIT

Key statistics

Satellite ATLAS CENTAUR 2 DEB at a glance.

Uptime

22606

Days in orbit

Revolutions

≈ 13.3

Per day

Orbit

LEO

Low Earth Orbit

Inclination

29.9

Latest

Satellite identification and parameters

Extended collection of information and parameters for ATLAS CENTAUR 2 DEB.

Object identification

Identified? True

Debris? True

Object name: ATLAS CENTAUR 2 DEB

International designator: 1963-047K

Object number (NORAD): 2886

Object ID (CCSDS): 2886

Country: UNITED STATES OF AMERICA (US)

Current information (Y/N): Y

RCS size: SMALL

Orbital parameters

Period: 108.278 minutes

Inclination: 29.8719 deg

SMA: 7525.259 km

Apoapsis: 1631.439 km

Periapsis: 662.809 km

RAAN: 294.5522 deg

Eccentricy: 0.06435856

Argument of periapsis: 152.2744 deg

Mean anomaly: 211.3713 deg

Mean motion: 13.29904834 rev/day

Mean motion (dot): 0.00000162 rev/day2

B* drag term: 0.000065274501 1/REarth

Two-line elements (TLE)

Creation date: Oct. 18, 2025, 2:17 a.m.

Reference frame: TEME

Reference center: EARTH

Epoch: Oct. 17, 2025, 5:16 p.m. UTC

TLE line 0: 0 ATLAS CENTAUR 2 DEB

TLE line 1: 1 02886U 63047K 25290.71989086 .00000162 00000-0 65275-4 0 9998

TLE line 2: 2 02886 29.8719 294.5522 0643586 152.2744 211.3713 13.29904834843914

Live tracking on map

Real-time ground track for satellite ATLAS CENTAUR 2 DEB.

In-orbit conjunctions

A list of the most updated potential collisions computed for object ATLAS CENTAUR 2 DEB.

Target Orbit TCA Probability of collision Miss distance Type
COSMOS 2251 DEB LEO 2025-03-29 16:52:28 0.0005691106 180.0 (m) DEBRIS
CZ-6A DEB LEO 2025-02-15 16:09:20 0.0001252343 713.0 (m) DEBRIS
NOAA 16 DEB SSO 2024-11-23 19:23:44 0.0001605167 72.0 (m) DEBRIS

Associated space launch

Test flight of the cryogenic Centaur stage.

ATLAS CENTAUR 2 DEB was lifted into orbit during the mission ‘Atlas Centaur | AC-2 Instrumentation Ring’, on board a Atlas Centaur space rocket.

The launch took place on Nov. 27, 1963, 7:03 p.m. from Launch Complex 36A.

For more information about the launch, click the button.

Launch to space Atlas Centaur | AC-2 Instrumentation Ring
Atlas Centaur | AC-2 Instrumentation Ring

Agency: N/A

Status: Launch Successful

Launch date: Nov. 27, 1963, 7:03 p.m. UTC

Rocket: Atlas Centaur

Launch pad: Launch Complex 36A

Location: Cape Canaveral SFS, FL, USA

...

Latest news about this satellite

There are no fresh news available about this satellite. Check back as we update our databases every day.


Newsletter sign-up

Weekly statistics, charts and insights to help you stay on top of the space industry.